Powrót do katalogu

DELTA 1 DEB

AktywnyLEO
NORAD 10214·DEBRIS·🇺🇸 United States

Wystrzelony Jul 14, 1977 z Cape Canaveral Space Force Station

Loading…

Następne Przeloty (najbliższe 24 godziny)

TLE

ŚwieżeSource: Space-Track

Epoka: Sep 14, 2026, 13:54 UTC

1 10214U 77065AT  26257.57972817  .00001701  00000-0  56946-3 0  9993
2 10214  28.8760  90.2893 0487373  45.7117 318.2388 13.83513932365644

Śledź DELTA 1 DEB w czasie rzeczywistym z AllMySat

Download on the App Store